|
Neptune
(
1 2 3 4 5 … 7
)
(Preview)
|
Solar System
|
62
|
37964
|
|
|
The Hubble Space Telescope captures the distant blue-green world, Neptune, and its satellites in this portrait. Astronomers used Hubble’s assortment of filters to pinpoint high altitude cloud...
|
|
|
|
|
|
Neptune Trojans
(
1 2
)
(Preview)
|
Solar System
|
13
|
9648
|
|
|
Title: The Dynamics of Neptune Trojan: I. the Inclined Orbits Authors: Li-Yong Zhou (1), Rudolf Dvorak (2), Yi-Sui Sun (1) ((1) Department of Astronomy, Nanjing University, China (2) Institute for Astronomy, University of Vienna, Austria) The stability of Trojan type orbits around Neptune is s...
|
|
|
|
|
|
Neptune
(
1 2
)
(Preview)
|
Observations
|
11
|
8211
|
|
|
The Planet Neptune in Capricornus Expand (7kb, 1024 x 768) 04:08 UT, 5 July 2008 Exposure 5 Seconds
|
|
|
|
|
|
Triton
(
1 2
)
(Preview)
|
Astronomy News
|
13
|
6692
|
|
|
Constraints on the Orbital Evolution of Triton Authors: Matija Cuk, Brett J. Gladman
We present simulations of Triton's post-capture orbit that confirm the importance of Kozai-type oscillations in its orbital elements. In the context of the tidal orbital evolution model, these variation...
|
|
|
|
|
|
Occultation of Neptune
(Preview)
|
Events
|
0
|
2088
|
|
|
The planet Neptune will be occulted by the first quarter moon at 18:30 UT, 6th November, 2008, in the constellation Capricornus. Observers in the northern Britain will be well placed to see the occultation of Neptune. The next UK lunar occultation of Neptune will be at 23:55 UT, 25th June, 2016. Pl...
|
|
|
|
|
|
Asteroid 2008 LC18
(Preview)
|
Asteroids
|
2
|
2491
|
|
|
Orbital elements: 2008 LC18 Epoch 2010 July 23.0 TT = JDT 2455400.5 MPC M 168.90351 (2000.0) P Q n 0.00599597 Peri. 7.37337 -0.08819400 -0.88243527 a 30.0074799 Node 88.52262 +0.88868775 -0.27925380 e 0.0820038 Incl. 27.53217 +0.44995100 +0.37858329 P 164.38 H 8.4 G 0.15 U 6 [url=http://www.mi...
|
|
|
|
|
|
Asteroid 2004 KV18
(Preview)
|
Asteroids
|
1
|
1857
|
|
|
Orbital elements:
2004 KV18
Epoch 2011 Aug. 27.0 TT = JDT 2455800.5 MPC
M 58.58713 (2000.0) P Q
n 0.00596069 Peri. 294.57748 -0.96434694 -0.17976645
a 30.1257920 Node 235.62729 +0.22798044 -0.93698737
e 0.1837787 Incl. 13.60940 -0.13438712 -0.29956417
P 165.35 H 8.9 G 0.15 U 3 MPEC 2011 -...
|
|
|
|
|
|
Despina
(Preview)
|
Neptune
|
1
|
3241
|
|
|
Despina, also known as Neptune V, is the third closest inner satellite of Neptune. It is named after Despoina, a nymph who was a daughter of Poseidon and Demeter. Despina was discovered in late July 1989 from the images taken by the Voyager 2 probe. It was given the temporary designation S/1989 N 3. The...
|
|
|
|
|
|
Asteroid 2011 HM102
(Preview)
|
Asteroids 2012
|
3
|
2785
|
|
|
Orbital elements:
2011 HM102
Epoch 2012 Sept. 30.0 TT = JDT 2456200.5 MPC
M 22.48290 (2000.0) P Q
n 0.00598318 Peri. 152.05154 -0.23236251 +0.84468058
a 30.0502387 Node 100.98900 -0.95858781 -0.11494405
e 0.0785095 Incl. 29.42032 -0.16467263 -0.52278349
P 164.73 H 8.1 G 0.15 U 4 MPEC 201...
|
|
|
|
|